Location: Wiesbaden
(50.0830°N, 8.2500°E)
Time: 07:07:36
(UTC+02:00)

ISS - Pass Details

Date: 23 May 2019
Orbit: 408 x 418 km, 51.6° (Epoch: 27 May)

Event Time Altitude Azimuth Distance (km) Brightness Sun altitude
Rises 21:49:29 0° 247° (WSW) 2,344 0.4 -4.9°
Reaches altitude 10° 21:51:34 10° 246° (WSW) 1,485 -0.6 -5.2°
Maximum altitude 21:54:53 77° 161° (SSE) 430 -3.8 -5.6°
Drops below altitude 10° 21:58:15 10° 75° (ENE) 1,496 -1.3 -6.0°
Sets 22:00:21 0° 74° (ENE) 2,362 -0.3 -6.2°
